Regional Weather Roundup
Issued by NWS

Home | Current Version | Previous Version | Text Only | Print | Product List | Glossary Off
Versions: 1 2 3 4 5 6 7 8 9 10 11 12 13 14 15 16 17 18 19 20 21 22 23 24 25 26 27 28 29 30 31 32 33 34 35 36 37 38 39 40 41 42 43 44 45 46 47 48 49 50

505
ASUS44 KMEG 281710
RWRTN
TENNESSEE HOURLY STATE WEATHER ROUNDUP
NATIONAL WEATHER SERVICE MEMPHIS TN
1200 PM CDT SUN MAY 28 2017

TNZ002-004-019-021-049-052-054-088>092-281800-
WEST TENNESSEE

CITY           SKY/WX    TMP DP  RH WIND       PRES   REMARKS
MEMPHIS INTL   CLOUDY    71  66  84 VRB6      29.91R
NWS MEMPHIS      N/A     74 N/A N/A MISG        N/A
JACKSON        PTSUNNY   73  66  78 SW8       29.92R
DYERSBURG        N/A    N/A N/A N/A MISG        N/A
COVINGTON      PTSUNNY   73  64  73 W8        29.91F
UNION CITY     PTSUNNY   73  64  73 W10G16    29.89R
BOLIVAR        SUNNY     73  64  73 VRB3      29.89F
PARIS          MOSUNNY   72  64  78 W6G17     29.90S
HUNTINGDON     PTSUNNY   73  64  73 W7        29.91R
LEXINGTON      PTSUNNY   73  64  73 MISG      29.92S
SELMER         MOSUNNY   73  64  73 W8        29.90F
SAVANNAH       PTSUNNY   75  64  69 VRB7      29.90R
$$

TNZ008-025-027-028-033-062-065-066-281800-
NORTH MIDDLE TENNESSEE

CITY           SKY/WX    TMP DP  RH WIND       PRES   REMARKS
NASHVILLE      PTSUNNY   74  61  63 VRB6      29.90F
PORTLAND       MOSUNNY   70  63  78 SW10      29.89R
CLARKSVILLE    CLOUDY    74  62  66 W10       29.89R
SMYRNA         MOSUNNY   75  64  68 SW6       29.91S
COOKEVILLE       N/A     72  63  73 VRB3      29.91
GALLATIN       PTSUNNY   73  63  68 VRB5      29.92R
CROSSVILLE     PTSUNNY   71  60  68 W12G22    29.96R
$$

TNZ061-075-076-078-094-096-097-281800-
SOUTH MIDDLE TENNESSEE

CITY           SKY/WX    TMP DP  RH WIND       PRES   REMARKS
FAYETTEVILLE   SUNNY     75  64  69 SW10G20   29.90R
TULLAHOMA      PTSUNNY   72  63  73 NW10      29.94R
WINCHESTER     SUNNY     75  63  64 SW12        N/A
MCMINNVILLE      N/A     73  64  73 SW8       29.92R
COLUMBIA       PTSUNNY   75  64  69 NW7G14    29.90R
SHELBYVILLE    PTSUNNY   73  64  73 W10G17    29.92S
$$

TNZ017-018-042-046-047-281800-
NORTHEAST TENNESSEE

CITY           SKY/WX    TMP DP  RH WIND       PRES   REMARKS
TRI CITIES     PTSUNNY   75  63  66 W10       29.93S
ELIZABETHTON   CLOUDY    73  63  68 W10G17    29.93S
$$

TNZ012-013-036-069-073-074-281800-
CENTRAL EAST TENNESSEE

CITY           SKY/WX    TMP DP  RH WIND       PRES   REMARKS
KNOXVILLE      CLOUDY    71  64  78 SW10      29.89F
OAK RIDGE      CLOUDY    73  63  70 VRB3      29.90F
DOWNTOWN KNOXV MOSUNNY   72  66  83 SW8       29.90F
GATLINBURG     MOSUNNY   73  63  68 W8        29.90F
MORRISTOWN     PTSUNNY   72  64  78 SW13      29.91F
JACKSBORO      PTSUNNY   73  61  64 VRB3      29.93R
$$

TNZ083-085-099-281800-
SOUTHEAST TENNESSEE

CITY           SKY/WX    TMP DP  RH WIND       PRES   REMARKS
CHATTANOOGA    CLOUDY    74  64  71 S8        29.90F
$$

SKY/WX REPORTED AS FAIR MEANS FEW OR NO CLOUDS BELOW
12 THOUSAND FEET.





USA.gov is the U.S. government's official web portal to all federal, state and local government web resources and services.